{"data":{"norad_id":66052,"epoch":"2026-09-19T01:54:35.574624Z","epoch_age_seconds":136982,"freshness":"FRESH","line1":"1 66052U 98067XR  26262.07957841  .00237527  33569-4  55611-3 0  9995","line2":"2 66052  51.6134 150.4403 0004853 177.6725 182.4306 15.96483619 52871","mean_motion":15.96483619,"eccentricity":0.0004853,"inclination_deg":51.6134,"raan_deg":150.4403,"arg_perigee_deg":177.6725,"mean_anomaly_deg":182.4306,"bstar":0.00055611,"rev_number":5287,"period_min":90.198232093479,"perigee_km":280.95041348114,"apogee_km":287.41686189207,"semimajor_km":6662.3206376866,"source":"CELESTRAK","updated_at":"2026-09-20T09:00:28.694134Z"}}